千帆星座-33 (QIANFAN-33)

导读

QIANFAN-33 是中国“北斗”卫星导航系统的重要组成部分,于2024年成功发射。该卫星主要用于提供高精度定位、导航和授时服务,增强北斗系统在全球范围内的覆盖与稳定性。QIANFAN-33 采用先进技术和自主知识产权,提升了系统的抗干扰能力和多模态兼容性,为交通运输、应急救援、农业、通信等多个领域提供关键支持,进一步推动中国在卫星导航领域的自主创新能力与国际竞争力。

基本信息
目录编号:
61566
目录名称:
QIANFAN-33
国际标识:
2024-185Q
轨道中心:
EARTH
卫星名称:
千帆星座-33
卫星全名:
千帆星座-33 (QIANFAN-33)
卫星状态:
在轨 (已飞行696 天)
发射日期:
2024-10-15 UTC
国别 :
中国 (CN)
星等 :
--
该卫星已列入 空间交会检测服务 Space Conjunction Data Service (SCDS) ,当前飞行风险评估等级: 无高风险
轨道信息
数据来源 国际轨道数据 AOE轨道数据
星历时间 2026-09-11T04:44:38+0800
10小时前
查看轨道信息
2026-09-10T16:00:00+0800
23小时前
查看轨道信息
半长轴 7283.213km 7283.222km
偏心率 0.0007435 0.0006811
轨道倾角 88.982° 88.983°
近地点辐角 180.894° 182.397°
升交点赤经 48.470° 48.530°
平近点角 179.223° 29.344°
近地点 899.66km 900.124km
远地点 910.492km 910.046km
周期 103.097分钟 103.097分钟
每日圈数 13.967488 13.967461
详细信息
卫星平台:
33
覆盖范围:
全球
运营商:
上海垣信卫星科技有限公司
运营商所在国:
中国
使用方式:
暂无
卫星简介
千帆星座,也被称为“G60星链”计划,是中国版“星链”的重要组成部分,旨在打造一个由1.4万多颗低轨宽频多媒体卫星构成的庞大星座。千帆星座计划由上海垣信卫星科技有限公司负责实施,于2023年启动建设。该项目是我国第二个低轨卫星大星座,旨在通过构建庞大的卫星网络,为全球用户提供高质量的通信和宽带互联网服务。
2D轨道图
3D轨道图
轨道高度分析图
轨道倾角分析图
轨道综合分析图
查看轨道综合分析图
交会数据列表
事件ID 空间交会对象 最接近时刻(TCA) 交会距离 交会风险概率(CRP) 交会风险指数(CRI) 操作
CDM_260911-142100-258006-156626
2026-09-11T
14:21:27+0000
0.934 km
远距离
3.202737E-5 中风险 0.65
与全量物体交会距离演化趋势
与全量物体交会风险概率演化趋势